This demonstration page uses our WeatherBlox Daily Observations layout. Learn more.

Left ArrowRight Arrow

34.16533, -84.80231

Hourly Observations for August 31, 2020

Temp ( °F °C ) Dew Point ( °F °C ) Humidity (%) Winds ( mph kmh ) Pressure ( in mb ) Visibility ( mi km ) Precip ( " mm )
12:26 am 00:26 Mostly Clear 74 23.3 71 21.7 91 91 Calm 29.84 1011 10 16 0.00 0.00
12:53 am 00:53 Clear 73 22.8 71 21.7 94 94 Calm 29.83 1010 10 16 0.00 0.00
1:37 am 01:37 Partly Cloudy 73 22.8 71 21.7 94 94 Calm 29.86 1011 10 16 0.00 0.00
1:48 am 01:48 Mostly Cloudy 73 23 72 22 94 94 Calm 29.85 1011 10 16 0.00 0.00
1:53 am 01:53 Mostly Cloudy 74 23.3 71 21.7 91 91 Calm 29.84 1010 10 16 0.00 0.00
2:53 am 02:53 Mostly Cloudy 74 23.3 71 21.7 91 91 Calm 29.83 1010 10 16 0.00 0.00
3:53 am 03:53 Cloudy 74 23.3 71 21.7 91 91 Calm 29.83 1010 10 16 0.00 0.00
4:53 am 04:53 Cloudy 74 23.3 71 21.7 91 91 Calm 29.84 1010 9 14 0.00 0.00
5:53 am 05:53 Cloudy 74 23.3 72 22.2 94 94 Calm 29.85 1011 8 13 0.00 0.00
6:16 am 06:16 Cloudy 74 23.3 72 22.2 94 94 Calm 29.87 1012 10 16 0.00 0.00
6:53 am 06:53 Cloudy 75 23.9 72 22.2 90 90 Calm 29.87 1011 9 14 0.00 0.00
7:02 am 07:02 Cloudy 75 23.9 72 22.2 90 90 Calm 29.88 1012 10 16 0.00 0.00
7:53 am 07:53 Cloudy 75 23.9 72 22.2 90 90 Calm 29.89 1012 10 16 0.00 0.00
8:53 am 08:53 Cloudy 76 24.4 73 22.8 91 91 Calm 29.91 1013 10 16 0.00 0.00
9:01 am 09:01 Cloudy 76 24.4 73 22.8 91 91 ENE 3 6 29.91 1013 10 16 0.00 0.00
9:53 am 09:53 Cloudy 77 25 73 22.8 88 88 ENE 3 6 29.91 1013 10 16 0.00 0.00
10:04 am 10:04 Cloudy 78 25.6 74 23.3 87 87 ENE 3 6 29.91 1013 10 16 0.00 0.00
10:21 am 10:21 Cloudy 79 26.1 74 23.3 85 85 E 3 6 29.91 1013 9 14 0.00 0.00
10:39 am 10:39 Cloudy 80 26.7 74 23.3 82 82 NE 3 6 29.91 1013 10 16 0.00 0.00
10:53 am 10:53 Cloudy 80 26.7 74 23.3 82 82 Calm 29.90 1013 10 16 0.00 0.00
11:27 am 11:27 Cloudy 81 27.2 73 22.8 77 77 Calm 29.90 1013 10 16 0.00 0.00
11:46 am 11:46 Cloudy 82 27.8 73 22.8 74 74 Calm 29.90 1013 10 16 0.00 0.00
11:53 am 11:53 Cloudy 82 27.8 73 22.8 74 74 Calm 29.90 1012 10 16 0.00 0.00
12:16 pm 12:16 Mostly Cloudy 84 28.9 74 23.3 72 72 VRB 3 6 29.90 1013 10 16 0.00 0.00
12:53 pm 12:53 Cloudy 84 28.9 74 23.3 72 72 Calm 29.90 1013 10 16 0.00 0.00
1:53 pm 13:53 Sunny 88 31.1 73 22.8 61 61 VRB 3 6 29.88 1012 10 16 0.00 0.00
2:53 pm 14:53 Cloudy 86 30 73 22.8 65 65 Calm 29.86 1011 10 16 0.00 0.00
3:53 pm 15:53 Cloudy 88 31.1 73 22.8 61 61 Calm 29.83 1010 10 16 0.00 0.00
4:53 pm 16:53 Partly Cloudy 89 31.7 71 21.7 55 55 VRB 3 6 29.83 1010 10 16 0.00 0.00
5:53 pm 17:53 Sunny 91 32.8 71 21.7 52 52 Calm 29.84 1011 10 16 0.00 0.00
6:53 pm 18:53 Mostly Cloudy 87 30.6 72 22.2 61 61 Calm 29.88 1012 10 16 0.00 0.00
7:53 pm 19:53 Mostly Sunny 81 27.2 76 24.4 85 85 Calm 29.87 1012 10 16 0.00 0.00
8:53 pm 20:53 Mostly Clear 81 27.2 75 23.9 82 82 Calm 29.90 1013 10 16 0.00 0.00
9:53 pm 21:53 Clear 80 26.7 75 23.9 85 85 Calm 29.91 1013 10 16 0.00 0.00
10:53 pm 22:53 Clear 78 25.6 74 23.3 87 87 Calm 29.93 1014 9 14 0.00 0.00
11:53 pm 23:53 Clear 76 24.4 73 22.8 91 91 S 3 6 29.92 1013 10 16 0.00 0.00

Powered by AerisWeather